SCP
0 0 0 0 0 0 0 0 0 0 0 0 0 0 0 0 0 0 0 0 0 0 0 0 0 0 0 0 0 0 0 0 0 0 0 0 0 0 0 0 0 -0 -0 0
0 0 0 0 0 0 0 0 0 0 0 0 0 0 0 0 0 0 0 0 0 0 0 0 0 0 0 0 0 0 0 0 0 0 0 0 0 0 0 0 0 -0 -0 -0
0 0 0 0 0 0 0 0 0 0 0 0 0 0 0 0 0 0 0 0 0 0 0 0 0 0 0 0 0 0 0 0 0 0 0 0 0 0 0 0 0 -0 0 0
0 0 0 0 0 0 0 0 0 0 0 0 0 0 0 0 0 0 0 0 0 0 0 0 0 0 0 0 0 0 0 0 0 0 0 0 0 0 0 0 -0 0 0 0
0 0 0 0 0 0 0 0 0 0 0 0 0 0 0 0 0 0 0 0 0 0 0 0 0 0 0 0 0 0 0 0 0 0 0 0 0 0 0 0 0 0 0 0
0 0 0 0 0 0 0 0 0 0 0 0 0 0 0 0 0 0 0 0 0 0 0 0 0 0 0 0 0 0 0 0 0 0 0 0 0 0 0 0 0 0 0 0
0 0 0 0 0 0 0 0 0 0 0 0 0 0 0 0 0 0 0 0 0 0 0 0 0 0 0 0 0 0 0 0 0 0 0 0 0 0 0 0 0 0 0 0
0 0 0 0 0 0 0 0 0 0 0 0 0 0 0 0 0 0 0 0 0 0 0 0 0 0 0 0 0 0 0 0 0 0 0 0 0 0 0 0 0 0 0 0
0 0 0 0 0 0 0 0 0 0 0 0 0 0 0 0 0 0 0 0 0 0 0 0 0 0 0 0 0 0 0 0 0 0 0 0 0 0 0 0 0 0 0 0
0 0 0 0 0 0 0 0 0 0 0 0 0 0 0 0 0 0 0 0 0 0 0 0 0 0 0 0 0 0 0 0 0 0 0 0 0 0 0 0 -0 0 0 -0
0 0 0 0 0 0 0 0 0 0 0 0 0 0 0 0 0 0 0 0 0 -0 0 0 0 0 0 0 0 0 0 0 0 0 0 0 0 0 0 0 -0 0 -0 -0
0 0 0 0 0 0 0 0 0 0 0 0 0 0 0 0 0 0 0 0 0 0 0 0 0 0 0 0 0 0 0 0 0 0 0 0 0 -0 0 0 0 0 -0 -0
0 0 0 0 0 0 0 0 0 0 0 0 0 0 0 0 0 -0 0 0 0 0 0 0 0 0 0 0 0 0 0 0 0 0 0 0 0 0 0 0 -0 -0 -0 -0
0 0 0 0 0 0 0 0 0 0 0 0 0 0 0 -0 -0 -0 -0 0 0 0 0 0 0 0 0 0 0 0 0 0 0 -0 -0 0 0 0 0 0 -0 -0 -0 -0
0 0 0 0 0 0 0 0 0 0 0 0 0 0 0 0 0 -0 -0 -0 0 0 0 0 0 0 0 0 0 0 0 0 0 0 0 -0 0 0 -0 -0 -0 -0 -0 -0
0 0 0 0 0 0 0 0 0 0 0 0 0 0 0 0 0 0 -0 -0 0 0 0 0 0 0 0 0 0 0 0 0 0 0 0 0 0 0 -0 -0 -0 -0 -0 -0
0 0 0 0 0 0 0 0 0 0 0 0 0 0 0 0 0 0 -0 0 0 0 0 0 0 0 0 0 0 0 0 0 0 0 0 0 0 0 -0 -0 -0 -0 0 0
0 0 0 0 0 0 0 0 0 0 0 0 0 0 0 0 0 0 0 0 0 0 0 0 0 0 0 0 0 0 0 0 0 0 0 0 0 0 -0 -0 -0 0 -0 0
0 0 0 0 0 0 0 0 0 0 0 0 -0 -0 0 0 0 0 0 0 0 0 0 0 0 0 0 0 0 0 0 0 0 0 0 0 0 0 0 -0 0 -0 0 -0
0 0 0 0 0 0 0 0 0 0 0 0 0 0 0 0 0 0 0 0 0 0 0 0 0 0 0 0 0 0 0 0 0 0 0 0 0 0 0 0 0 0 0 -0
0 0 0 0 0 0 0 0 0 0 0 0 0 0 0 0 0 0 0 0 0 0 0 0 0 0 0 0 0 0 0 0 0 0 0 0 0 0 0 0 0 0 0 -0
0 0 0 0 0 0 0 0 0 0 0 0 0 0 0 0 0 0 0 0 0 0 0 -0 0 0 0 0 0 0 0 0 0 0 0 0 0 0 0 0 0 0 0 0
0 0 0 0 0 0 0 0 0 0 0 0 0 0 0 0 0 0 0 0 0 0 0 0 -0 -0 -0 0 0 0 0 0 0 0 0 0 0 0 0 0 0 0 0 0
0 0 0 0 0 0 0 0 0 0 0 0 0 0 0 0 0 0 0 0 0 0 0 -0 -0 -0 -0 -0 0 0 0 0 0 0 0 0 0 0 0 0 0 0 0 0
0 0 0 0 0 0 0 0 0 0 0 0 0 0 0 0 0 -0 -0 0 -0 -0 -0 -0 -0 -0 -0 -0 -0 0 0 0 0 0 0 0 0 0 0 0 0 0 0 0
0 0 0 0 0 0 0 0 0 0 0 0 0 0 0 -0 -0 -0 -0 -0 -0 -0 -0 -0 -0 -0 -0 -0 -0 0 0 0 0 0 0 0 0 0 0 0 0 0 0 0
Wind_Speed_500mb
4 6 14 19 11 3 8 4 5 7 2 5 11 27 35 42 26 29 26 16 17 20 26 27 29 29 29 27 23 18 14 14 16 20 26 26 21 20 20 20 16 13 15 12
7 14 8 7 8 6 2 2 11 8 2 2 10 38 31 13 9 6 6 8 7 9 29 28 31 31 28 23 21 14 13 10 15 21 22 20 18 15 14 14 15 15 15 10
11 4 7 10 6 9 7 9 6 9 8 2 12 18 10 6 9 10 9 7 6 9 23 33 35 33 30 24 16 12 9 11 16 18 18 16 13 11 11 11 11 12 14 11
9 4 7 6 7 11 4 7 3 1 5 6 6 9 10 10 16 10 15 16 11 12 23 31 34 34 29 23 17 14 9 13 12 15 16 10 9 6 7 7 11 15 15 10
10 7 7 7 6 12 8 3 7 3 6 4 2 6 17 8 13 8 14 23 15 14 21 30 33 32 28 22 17 14 10 11 10 14 10 6 4 4 4 5 4 11 13 9
1 2 1 5 5 4 11 9 12 8 4 3 3 7 16 8 8 2 3 22 19 20 26 31 33 32 28 22 19 13 11 7 8 10 6 1 1 3 5 3 1 8 10 8
1 4 1 5 9 7 5 9 5 8 6 10 6 4 21 10 9 6 5 18 24 24 31 36 37 34 28 21 18 13 9 7 6 5 3 3 3 5 5 2 2 4 7 5
13 8 12 3 3 8 9 9 10 12 6 6 4 11 12 11 5 17 16 5 24 30 34 35 32 28 24 20 16 13 9 10 6 6 4 6 6 6 4 2 2 7 5 6
9 4 4 5 3 4 8 7 5 13 3 6 6 14 20 5 9 19 9 9 21 32 36 35 32 27 24 19 14 13 12 11 6 6 7 9 9 7 4 3 3 4 7 7
11 5 4 3 4 5 6 5 5 5 3 6 8 10 12 13 16 19 10 10 12 29 34 35 33 29 25 21 17 16 14 12 7 7 9 12 12 9 6 4 4 7 9 7
9 6 5 1 9 13 6 4 4 3 6 8 2 10 11 6 8 11 14 17 13 18 30 34 34 31 27 24 19 17 15 12 7 9 11 15 16 12 9 8 8 8 9 9
10 9 7 9 2 3 2 4 11 7 9 0 4 11 8 7 8 17 24 29 20 11 20 29 36 36 35 28 22 18 17 13 9 12 16 19 19 14 10 8 8 6 10 9
12 3 5 11 6 4 8 9 6 6 5 12 11 10 7 3 11 25 29 41 36 32 17 26 37 41 38 33 28 23 18 16 12 15 20 23 20 15 11 8 6 4 6 14
10 5 10 13 7 9 7 7 8 7 5 8 12 9 25 8 13 26 54 55 53 54 32 23 36 43 41 39 34 28 22 19 15 18 22 25 22 17 10 6 8 12 12 11
8 8 5 2 4 4 6 9 13 14 12 11 3 13 14 17 14 41 53 63 57 57 46 32 30 39 41 41 40 36 29 23 18 21 25 26 24 16 10 11 11 16 19 24
5 5 3 7 4 1 7 16 17 14 3 13 13 37 15 44 53 54 52 46 56 53 47 40 28 32 43 41 43 38 32 26 23 25 29 28 23 14 14 15 14 29 31 31
6 10 6 6 4 2 13 16 25 10 6 12 13 21 13 14 10 10 24 43 43 45 41 38 33 27 31 41 41 43 35 31 28 29 34 31 27 21 19 21 26 33 36 34
8 7 5 5 2 3 8 5 9 14 12 17 19 25 24 23 22 20 16 30 38 41 35 31 31 29 27 32 42 44 43 37 35 35 39 36 33 25 25 28 33 33 32 30
6 6 4 9 7 10 8 4 12 12 4 3 9 12 16 10 1 12 35 35 33 44 37 28 30 27 26 28 40 49 50 44 42 42 45 42 39 34 33 38 37 35 30 30
13 3 6 4 9 13 11 1 2 4 2 1 2 7 10 22 8 6 36 39 42 45 53 40 27 25 21 24 35 52 55 51 47 46 48 46 45 35 36 42 40 35 31 25
14 7 21 8 7 11 15 8 2 8 9 8 14 13 19 7 3 16 31 38 41 47 51 56 40 29 22 20 32 52 58 58 43 45 52 51 49 42 39 42 39 34 35 33
17 15 9 9 9 16 14 8 13 7 9 12 15 16 18 18 22 30 33 39 45 49 52 50 54 40 28 19 25 44 58 51 49 51 57 58 56 47 48 48 43 35 40 40
7 12 9 15 11 6 8 18 12 12 17 20 25 23 23 29 32 34 40 43 44 44 48 54 51 49 36 23 17 32 49 52 55 56 62 64 62 55 49 48 52 49 44 45
7 7 7 8 10 8 18 15 20 23 32 23 22 25 28 31 33 36 41 43 46 47 48 47 47 46 35 31 19 20 37 47 57 61 65 68 67 63 56 50 55 52 52 48
8 17 12 6 8 7 12 21 20 25 19 12 11 23 28 30 33 34 37 43 46 47 47 45 42 38 36 26 30 18 27 42 57 63 67 72 71 68 64 62 56 54 54 49
9 12 8 9 20 11 5 26 19 21 16 10 9 19 28 38 38 41 45 45 47 49 50 43 42 40 35 26 22 27 21 34 51 65 70 77 76 74 69 68 66 63 60 53
Wind_Direction_500mb
114 122 212 200 195 93 117 164 249 264 301 295 243 281 287 289 269 276 287 300 289 250 202 197 193 194 199 202 207 215 246 271 294 308 313 320 327 336 343 353 5 353 338 322
53 235 192 135 171 203 104 317 274 269 225 213 336 292 278 292 246 230 290 309 309 207 193 191 193 190 192 202 201 218 250 276 301 312 322 336 338 346 5 12 359 355 345 54
171 166 92 141 146 149 203 202 217 237 323 183 321 291 324 275 276 248 239 253 244 197 190 189 186 181 188 193 203 232 255 286 301 321 338 344 344 360 16 19 16 28 49 45
241 294 143 157 195 147 253 212 178 159 52 253 2 283 290 304 297 252 229 218 213 190 185 186 183 182 186 190 210 231 247 279 312 327 355 344 6 9 40 23 27 45 73 54
232 168 162 157 220 172 221 76 106 71 105 4 320 108 272 337 298 260 221 211 197 178 184 188 184 183 188 195 217 223 247 277 327 343 343 6 5 41 68 31 28 67 84 70
219 304 142 138 77 45 149 76 48 50 68 40 312 141 283 238 231 226 142 203 190 174 171 176 179 186 192 202 217 218 246 280 323 351 314 13 191 146 130 111 102 90 84 79
295 209 70 134 87 31 78 74 337 354 5 217 343 88 246 282 262 249 119 200 188 179 176 178 184 190 197 202 218 220 247 267 303 317 279 209 191 167 146 124 93 117 100 84
160 279 174 154 138 181 177 164 162 211 209 253 28 225 249 213 318 251 268 191 192 189 186 186 190 195 201 198 213 224 247 256 268 272 231 200 195 178 167 232 178 191 185 161
140 259 317 42 82 86 194 197 148 103 37 52 231 283 297 257 298 277 292 216 211 201 198 195 194 195 198 202 209 225 234 246 248 251 228 196 196 177 164 232 197 200 201 197
202 89 340 357 138 67 163 147 91 353 188 253 298 287 238 346 338 347 312 295 247 205 202 202 199 195 195 202 212 227 227 237 240 234 220 192 199 180 185 190 212 191 199 202
138 114 300 105 213 171 136 195 51 156 146 174 183 260 209 313 349 358 354 331 305 220 210 209 208 203 202 207 219 229 227 231 230 230 200 196 191 193 195 202 225 220 214 185
188 122 147 208 315 341 351 224 164 158 238 111 145 276 187 211 102 57 25 15 355 290 230 223 221 215 214 214 220 227 231 225 228 217 186 202 189 203 200 205 218 207 198 200
186 211 67 354 4 9 218 201 184 103 88 197 154 250 234 183 49 23 28 10 9 360 271 231 228 227 228 226 223 225 226 222 230 210 190 196 204 206 214 216 206 232 248 206
123 103 155 184 170 130 175 196 201 154 133 184 223 272 304 293 1 343 343 338 329 323 319 268 237 233 231 231 230 227 222 220 218 207 200 187 209 205 219 193 182 194 202 180
132 171 137 279 73 137 179 172 185 188 206 209 231 223 246 285 310 303 312 313 322 327 335 304 267 244 238 232 228 225 220 221 210 205 202 185 204 207 192 169 187 200 167 146
26 155 117 342 1 154 238 224 207 218 217 258 276 273 253 260 268 278 306 312 317 325 331 328 317 265 244 238 233 229 223 221 212 200 198 191 194 190 173 167 161 155 143 138
110 140 101 258 318 0 302 219 206 174 181 176 206 254 265 259 265 308 331 317 320 325 323 320 310 294 272 249 235 228 221 214 214 197 199 196 180 183 174 165 159 153 143 142
148 145 101 186 28 257 242 187 163 185 219 227 272 278 277 274 268 285 28 356 347 351 338 321 321 281 269 257 233 222 217 212 211 200 198 197 183 183 183 174 161 159 159 154
167 126 137 164 202 310 306 210 154 172 144 232 217 288 312 320 250 149 4 6 3 2 358 333 326 303 258 244 235 218 216 212 209 203 197 197 187 188 183 178 177 171 172 166
159 268 130 116 158 202 238 297 236 236 178 41 187 57 15 31 65 298 357 11 14 16 15 4 336 327 283 254 233 222 217 215 211 206 197 197 185 191 185 185 182 177 174 184
184 182 217 190 209 274 253 252 294 88 193 106 53 30 20 56 80 15 27 22 17 14 12 14 359 342 323 269 241 223 219 221 212 203 196 195 184 190 190 183 185 187 188 189
174 170 194 193 206 245 230 141 174 178 97 87 60 45 50 34 23 20 21 18 14 8 0 0 8 354 337 306 256 230 224 221 210 201 198 192 187 191 188 187 183 180 180 179
206 181 180 179 204 214 138 137 132 135 129 117 95 72 60 43 26 16 10 8 6 4 2 0 354 4 348 332 279 249 230 221 211 203 200 191 189 195 192 196 187 178 180 181
249 177 169 92 229 195 152 141 133 146 132 115 83 53 37 26 15 8 4 359 355 353 352 350 353 347 357 341 311 254 235 225 214 208 202 194 193 196 192 193 192 190 187 188
189 140 164 268 277 144 202 186 166 160 159 153 62 25 16 7 3 354 348 349 345 344 339 340 340 341 343 351 333 280 231 222 215 211 207 198 196 199 195 196 201 199 191 186
195 172 169 208 208 222 202 166 147 181 211 236 321 338 345 343 336 336 337 335 335 335 336 329 329 333 330 337 337 308 240 223 215 213 210 203 199 201 200 200 197 195 195 187
Wind_Speed_850mb
4 6 14 19 11 3 8 4 5 7 2 5 11 27 35 42 26 29 26 16 17 20 26 27 29 29 29 27 23 18 14 14 16 20 26 26 21 20 20 20 16 13 15 12
7 14 8 7 8 6 2 2 11 8 2 2 10 38 31 13 9 6 6 8 7 9 29 28 31 31 28 23 21 14 13 10 15 21 22 20 18 15 14 14 15 15 15 10
11 4 7 10 6 9 7 9 6 9 8 2 12 18 10 6 9 10 9 7 6 9 23 33 35 33 30 24 16 12 9 11 16 18 18 16 13 11 11 11 11 12 14 11
9 4 7 6 7 11 4 7 3 1 5 6 6 9 10 10 16 10 15 16 11 12 23 31 34 34 29 23 17 14 9 13 12 15 16 10 9 6 7 7 11 15 15 10
10 7 7 7 6 12 8 3 7 3 6 4 2 6 17 8 13 8 14 23 15 14 21 30 33 32 28 22 17 14 10 11 10 14 10 6 4 4 4 5 4 11 13 9
1 2 1 5 5 4 11 9 12 8 4 3 3 7 16 8 8 2 3 22 19 20 26 31 33 32 28 22 19 13 11 7 8 10 6 1 1 3 5 3 1 8 10 8
1 4 1 5 9 7 5 9 5 8 6 10 6 4 21 10 9 6 5 18 24 24 31 36 37 34 28 21 18 13 9 7 6 5 3 3 3 5 5 2 2 4 7 5
13 8 12 3 3 8 9 9 10 12 6 6 4 11 12 11 5 17 16 5 24 30 34 35 32 28 24 20 16 13 9 10 6 6 4 6 6 6 4 2 2 7 5 6
9 4 4 5 3 4 8 7 5 13 3 6 6 14 20 5 9 19 9 9 21 32 36 35 32 27 24 19 14 13 12 11 6 6 7 9 9 7 4 3 3 4 7 7
11 5 4 3 4 5 6 5 5 5 3 6 8 10 12 13 16 19 10 10 12 29 34 35 33 29 25 21 17 16 14 12 7 7 9 12 12 9 6 4 4 7 9 7
9 6 5 1 9 13 6 4 4 3 6 8 2 10 11 6 8 11 14 17 13 18 30 34 34 31 27 24 19 17 15 12 7 9 11 15 16 12 9 8 8 8 9 9
10 9 7 9 2 3 2 4 11 7 9 0 4 11 8 7 8 17 24 29 20 11 20 29 36 36 35 28 22 18 17 13 9 12 16 19 19 14 10 8 8 6 10 9
12 3 5 11 6 4 8 9 6 6 5 12 11 10 7 3 11 25 29 41 36 32 17 26 37 41 38 33 28 23 18 16 12 15 20 23 20 15 11 8 6 4 6 14
10 5 10 13 7 9 7 7 8 7 5 8 12 9 25 8 13 26 54 55 53 54 32 23 36 43 41 39 34 28 22 19 15 18 22 25 22 17 10 6 8 12 12 11
8 8 5 2 4 4 6 9 13 14 12 11 3 13 14 17 14 41 53 63 57 57 46 32 30 39 41 41 40 36 29 23 18 21 25 26 24 16 10 11 11 16 19 24
5 5 3 7 4 1 7 16 17 14 3 13 13 37 15 44 53 54 52 46 56 53 47 40 28 32 43 41 43 38 32 26 23 25 29 28 23 14 14 15 14 29 31 31
6 10 6 6 4 2 13 16 25 10 6 12 13 21 13 14 10 10 24 43 43 45 41 38 33 27 31 41 41 43 35 31 28 29 34 31 27 21 19 21 26 33 36 34
8 7 5 5 2 3 8 5 9 14 12 17 19 25 24 23 22 20 16 30 38 41 35 31 31 29 27 32 42 44 43 37 35 35 39 36 33 25 25 28 33 33 32 30
6 6 4 9 7 10 8 4 12 12 4 3 9 12 16 10 1 12 35 35 33 44 37 28 30 27 26 28 40 49 50 44 42 42 45 42 39 34 33 38 37 35 30 30
13 3 6 4 9 13 11 1 2 4 2 1 2 7 10 22 8 6 36 39 42 45 53 40 27 25 21 24 35 52 55 51 47 46 48 46 45 35 36 42 40 35 31 25
14 7 21 8 7 11 15 8 2 8 9 8 14 13 19 7 3 16 31 38 41 47 51 56 40 29 22 20 32 52 58 58 43 45 52 51 49 42 39 42 39 34 35 33
17 15 9 9 9 16 14 8 13 7 9 12 15 16 18 18 22 30 33 39 45 49 52 50 54 40 28 19 25 44 58 51 49 51 57 58 56 47 48 48 43 35 40 40
7 12 9 15 11 6 8 18 12 12 17 20 25 23 23 29 32 34 40 43 44 44 48 54 51 49 36 23 17 32 49 52 55 56 62 64 62 55 49 48 52 49 44 45
7 7 7 8 10 8 18 15 20 23 32 23 22 25 28 31 33 36 41 43 46 47 48 47 47 46 35 31 19 20 37 47 57 61 65 68 67 63 56 50 55 52 52 48
8 17 12 6 8 7 12 21 20 25 19 12 11 23 28 30 33 34 37 43 46 47 47 45 42 38 36 26 30 18 27 42 57 63 67 72 71 68 64 62 56 54 54 49
9 12 8 9 20 11 5 26 19 21 16 10 9 19 28 38 38 41 45 45 47 49 50 43 42 40 35 26 22 27 21 34 51 65 70 77 76 74 69 68 66 63 60 53
Wind_Direction_850mb
114 122 212 200 195 93 117 164 249 264 301 295 243 281 287 289 269 276 287 300 289 250 202 197 193 194 199 202 207 215 246 271 294 308 313 320 327 336 343 353 5 353 338 322
53 235 192 135 171 203 104 317 274 269 225 213 336 292 278 292 246 230 290 309 309 207 193 191 193 190 192 202 201 218 250 276 301 312 322 336 338 346 5 12 359 355 345 54
171 166 92 141 146 149 203 202 217 237 323 183 321 291 324 275 276 248 239 253 244 197 190 189 186 181 188 193 203 232 255 286 301 321 338 344 344 360 16 19 16 28 49 45
241 294 143 157 195 147 253 212 178 159 52 253 2 283 290 304 297 252 229 218 213 190 185 186 183 182 186 190 210 231 247 279 312 327 355 344 6 9 40 23 27 45 73 54
232 168 162 157 220 172 221 76 106 71 105 4 320 108 272 337 298 260 221 211 197 178 184 188 184 183 188 195 217 223 247 277 327 343 343 6 5 41 68 31 28 67 84 70
219 304 142 138 77 45 149 76 48 50 68 40 312 141 283 238 231 226 142 203 190 174 171 176 179 186 192 202 217 218 246 280 323 351 314 13 191 146 130 111 102 90 84 79
295 209 70 134 87 31 78 74 337 354 5 217 343 88 246 282 262 249 119 200 188 179 176 178 184 190 197 202 218 220 247 267 303 317 279 209 191 167 146 124 93 117 100 84
160 279 174 154 138 181 177 164 162 211 209 253 28 225 249 213 318 251 268 191 192 189 186 186 190 195 201 198 213 224 247 256 268 272 231 200 195 178 167 232 178 191 185 161
140 259 317 42 82 86 194 197 148 103 37 52 231 283 297 257 298 277 292 216 211 201 198 195 194 195 198 202 209 225 234 246 248 251 228 196 196 177 164 232 197 200 201 197
202 89 340 357 138 67 163 147 91 353 188 253 298 287 238 346 338 347 312 295 247 205 202 202 199 195 195 202 212 227 227 237 240 234 220 192 199 180 185 190 212 191 199 202
138 114 300 105 213 171 136 195 51 156 146 174 183 260 209 313 349 358 354 331 305 220 210 209 208 203 202 207 219 229 227 231 230 230 200 196 191 193 195 202 225 220 214 185
188 122 147 208 315 341 351 224 164 158 238 111 145 276 187 211 102 57 25 15 355 290 230 223 221 215 214 214 220 227 231 225 228 217 186 202 189 203 200 205 218 207 198 200
186 211 67 354 4 9 218 201 184 103 88 197 154 250 234 183 49 23 28 10 9 360 271 231 228 227 228 226 223 225 226 222 230 210 190 196 204 206 214 216 206 232 248 206
123 103 155 184 170 130 175 196 201 154 133 184 223 272 304 293 1 343 343 338 329 323 319 268 237 233 231 231 230 227 222 220 218 207 200 187 209 205 219 193 182 194 202 180
132 171 137 279 73 137 179 172 185 188 206 209 231 223 246 285 310 303 312 313 322 327 335 304 267 244 238 232 228 225 220 221 210 205 202 185 204 207 192 169 187 200 167 146
26 155 117 342 1 154 238 224 207 218 217 258 276 273 253 260 268 278 306 312 317 325 331 328 317 265 244 238 233 229 223 221 212 200 198 191 194 190 173 167 161 155 143 138
110 140 101 258 318 0 302 219 206 174 181 176 206 254 265 259 265 308 331 317 320 325 323 320 310 294 272 249 235 228 221 214 214 197 199 196 180 183 174 165 159 153 143 142
148 145 101 186 28 257 242 187 163 185 219 227 272 278 277 274 268 285 28 356 347 351 338 321 321 281 269 257 233 222 217 212 211 200 198 197 183 183 183 174 161 159 159 154
167 126 137 164 202 310 306 210 154 172 144 232 217 288 312 320 250 149 4 6 3 2 358 333 326 303 258 244 235 218 216 212 209 203 197 197 187 188 183 178 177 171 172 166
159 268 130 116 158 202 238 297 236 236 178 41 187 57 15 31 65 298 357 11 14 16 15 4 336 327 283 254 233 222 217 215 211 206 197 197 185 191 185 185 182 177 174 184
184 182 217 190 209 274 253 252 294 88 193 106 53 30 20 56 80 15 27 22 17 14 12 14 359 342 323 269 241 223 219 221 212 203 196 195 184 190 190 183 185 187 188 189
174 170 194 193 206 245 230 141 174 178 97 87 60 45 50 34 23 20 21 18 14 8 0 0 8 354 337 306 256 230 224 221 210 201 198 192 187 191 188 187 183 180 180 179
206 181 180 179 204 214 138 137 132 135 129 117 95 72 60 43 26 16 10 8 6 4 2 0 354 4 348 332 279 249 230 221 211 203 200 191 189 195 192 196 187 178 180 181
249 177 169 92 229 195 152 141 133 146 132 115 83 53 37 26 15 8 4 359 355 353 352 350 353 347 357 341 311 254 235 225 214 208 202 194 193 196 192 193 192 190 187 188
189 140 164 268 277 144 202 186 166 160 159 153 62 25 16 7 3 354 348 349 345 344 339 340 340 341 343 351 333 280 231 222 215 211 207 198 196 199 195 196 201 199 191 186
195 172 169 208 208 222 202 166 147 181 211 236 321 338 345 343 336 336 337 335 335 335 336 329 329 333 330 337 337 308 240 223 215 213 210 203 199 201 200 200 197 195 195 187